Flag for Bangladesh Weather past 2 weeks in Jessore, Bangladesh

Now
61 °F

Fog.


Feels Like: 61 °F
Forecast: 80 / 91 °F
Wind: 8 mph from North

Location: Kunming Airport

Current Time: Aug 24, 2014 at 2:17:03 AM

Latest Report: Aug 24, 2014 at 1:00 AM


Visibility: 2 mi

Pressure: 30.12 "Hg

Humidity: 100%

Dew point: 61 °F

Location of JessoreLocation

Historic Weather in Jessore — Graph

°F

Jessore temperature yesterday

Maximum temperature yesterday: 75 °F (at 1:00 PM)
Minimum temperature yesterday: 63 °F (at 1:00 AM)
Average temperature yesterday: 66 °F

Past Weeks' High & Low Weather Summary

 TemperatureHumidityPressure
High81 °F (Aug 9, 2:00 PM)100% (Aug 10, 1:00 AM)30.27 "Hg (Aug 10, 1:00 AM)
Low54 °F (Aug 20, 4:00 AM)50% (Aug 20, 2:00 PM)29.89 "Hg (Aug 11, 3:00 PM)
Average65 °F86%30.09 "Hg
* Reported Aug 9 1:00 AM — Aug 24 1:00 AM, Jessore, Weather by CustomWeather, © 2014

Note: Actual official high and low records may vary slightly from our data, if they occured in-between our weather recording intervals... More about our weather records

Advertising

Jessore weather history for previous 24 hours

 ConditionsComfort  
Time TempWeatherWind HumidityBarometerVisibility
1:00 AM
Aug 24
61 °FFog.8 mph100%30.12 "Hg2 mi
12:00 AM61 °FPassing clouds.6 mph100%30.15 "HgN/A
11:00 PM
Aug 23
63 °FSprinkles. Passing clouds.3 mph100%30.15 "HgN/A
10:00 PM63 °FThunderstorms. Passing clouds.10 mph100%30.18 "HgN/A
9:00 PM66 °FThunderstorms. Passing clouds.6 mph94%30.15 "HgN/A
8:00 PM66 °FPassing clouds.8 mph88%30.12 "HgN/A
7:00 PM66 °FPassing clouds.8 mph88%30.09 "HgN/A
6:00 PM68 °FPassing clouds.8 mph78%30.09 "HgN/A
5:00 PM70 °FPassing clouds.13 mph78%30.07 "HgN/A
4:00 PM70 °FScattered clouds.10 mph78%30.07 "HgN/A
3:00 PM68 °FScattered clouds.8 mph83%30.07 "HgN/A
2:00 PM70 °FScattered clouds.6 mph83%30.09 "HgN/A
1:00 PM75 °FScattered clouds.10 mph61%30.09 "HgN/A
12:00 PM73 °FPartly sunny.10 mph69%30.12 "HgN/A
11:00 AM70 °FScattered clouds.10 mph78%30.15 "HgN/A
10:00 AM68 °FBroken clouds.13 mph78%30.15 "HgN/A
9:00 AM68 °FBroken clouds.13 mph83%30.18 "HgN/A
8:00 AM66 °FBroken clouds.13 mph88%30.18 "HgN/A
7:00 AM64 °FCloudy.10 mph94%30.15 "HgN/A
6:00 AM64 °FCloudy.8 mph94%30.15 "HgN/A
5:00 AM63 °FMostly cloudy.8 mph100%30.12 "HgN/A
4:00 AM63 °FPartly cloudy.10 mph100%30.12 "HgN/A
3:00 AM63 °FPartly cloudy.10 mph100%30.12 "HgN/A
2:00 AM63 °FPartly cloudy.10 mph100%30.12 "HgN/A
Weather by CustomWeather, © 2014

See weather overviewHow to use our weather pages